GLOBALSTAR M001 [-] 1 25162U 98008A 21015.49189087 .00000038 00000-0 10343-2 0 9990 2 25162 52.0054 349.5819 0001645 97.4170 59.7964 12.38126971 43813 GLOBALSTAR M004 [-] 1 25163U 98008B 21015.79575235 -.00000071 00000-0 18336-3 0 9997 2 25163 52.0004 295.7362 0003182 325.7866 84.2512 12.63295562 57864 GLOBALSTAR M002 [-] 1 25164U 98008C 21015.56428516 -.00000052 00000-0 49158-3 0 9997 2 25164 52.0036 325.9583 0001686 64.1648 295.9346 11.61477588996551 GLOBALSTAR M003 [-] 1 25165U 98008D 21015.62006257 -.00000149 00000-0 -63890-3 0 9996 2 25165 51.9820 318.6236 0007232 283.5468 247.4413 12.11946949 37578 GLOBALSTAR M014 [-] 1 25306U 98023A 21015.46832911 -.00000044 00000-0 63556-3 0 9998 2 25306 51.9839 283.3225 0000389 332.9955 199.1540 11.65437419 3085 GLOBALSTAR M006 [-] 1 25307U 98023B 21015.47167167 -.00000037 00000-0 79343-3 0 9997 2 25307 51.9932 275.4857 0004648 77.5415 93.2566 11.58127373 29906 GLOBALSTAR M015 [-] 1 25308U 98023C 21015.54601946 -.00000149 00000-0 -17241-2 0 9997 2 25308 51.9832 299.9054 0013226 85.8367 85.3365 11.48845926 8610 GLOBALSTAR M008 [-] 1 25309U 98023D 21015.54508314 -.00000111 00000-0 -11541-3 0 9990 2 25309 51.9938 196.0203 0003193 37.9051 26.3921 12.35989363 38450 GLOBALSTAR M023 [+] 1 25621U 99004A 21015.50501343 -.00000230 00000-0 -70250-3 0 9992 2 25621 52.0115 286.5128 0009433 157.6960 13.1068 12.62389167 11979 GLOBALSTAR M040 [-] 1 25622U 99004B 21015.54710383 -.00000104 00000-0 -37764-5 0 9998 2 25622 51.9926 288.1996 0001303 55.8493 1.3055 12.61902975 11654 GLOBALSTAR M036 [-] 1 25623U 99004C 21015.53421514 -.00000100 00000-0 -25771-3 0 9992 2 25623 51.9941 173.3062 0010629 194.9118 249.8779 11.86574915987414 GLOBALSTAR M038 [-] 1 25624U 99004D 21015.56881448 -.00000089 00000-0 47492-4 0 9992 2 25624 51.9991 38.2039 0001485 270.1954 232.6819 12.32450065 3402 GLOBALSTAR M022 [-] 1 25649U 99012A 21015.86571260 -.00000117 00000-0 -36071-3 0 9992 2 25649 52.0064 356.3771 0002231 223.9882 145.7263 12.02443538982378 GLOBALSTAR M041 [-] 1 25650U 99012B 21015.76468702 -.00000112 00000-0 -35010-3 0 9996 2 25650 51.9990 188.8984 0003683 54.6262 305.4918 11.96614092985375 GLOBALSTAR M046 [-] 1 25651U 99012C 21015.47257753 .00000033 00000-0 13395-2 0 9998 2 25651 52.0077 6.4565 0002018 266.4979 263.4913 12.09348273988576 GLOBALSTAR M037 [+] 1 25652U 99012D 21015.56885240 -.00000135 00000-0 -17225-3 0 9999 2 25652 52.0021 57.5522 0002093 202.4942 315.4290 12.62335537 7531 GLOBALSTAR M045 [-] 1 25676U 99019A 21015.60912334 -.00000092 00000-0 15612-4 0 9992 2 25676 51.9943 223.8929 0001620 98.2359 298.0280 12.26980086995508 GLOBALSTAR M019 [-] 1 25677U 99019B 21015.62643000 -.00000168 00000-0 -81581-3 0 9998 2 25677 51.9853 240.8028 0000791 0.3568 29.6513 12.13818509989328 GLOBALSTAR M044 [-] 1 25678U 99019C 21015.43704799 -.00000043 00000-0 56812-3 0 9991 2 25678 51.9992 350.8240 0006140 168.0682 341.7335 11.90196417979155 GLOBALSTAR M042 [-] 1 25679U 99019D 21015.49627392 -.00000047 00000-0 42724-3 0 9992 2 25679 52.0019 286.1178 0002018 212.1400 318.4726 12.22021177988003 GLOBALSTAR M025 [-] 1 25770U 99031A 21015.54712780 -.00000060 00000-0 21860-3 0 9993 2 25770 51.9826 297.2924 0001377 343.6614 186.9581 11.22533016300492 GLOBALSTAR M049 [-] 1 25771U 99031B 21015.58667284 -.00000097 00000-0 -11206-2 0 9999 2 25771 51.9850 250.8541 0001909 196.9563 163.1170 11.12087919937899 GLOBALSTAR M047 [-] 1 25772U 99031C 21015.48281193 -.00000070 00000-0 -25391-5 0 9994 2 25772 51.9855 42.2347 0016080 12.5604 347.5600 11.31901256288375 GLOBALSTAR M052 [-] 1 25773U 99031D 21015.45282236 -.00000084 00000-0 -62562-3 0 9995 2 25773 51.9893 22.5419 0002411 18.7856 134.9729 11.15034349298495 GLOBALSTAR M035 [-] 1 25851U 99037A 21015.52356015 -.00000093 00000-0 -11115-2 0 9990 2 25851 51.9973 53.4932 0013703 245.4590 225.5822 11.04515656917946 GLOBALSTAR M032 [-] 1 25852U 99037B 21015.59694199 -.00000070 00000-0 -97723-4 0 9992 2 25852 51.9981 349.8679 0004416 347.8153 12.2539 11.19041177954135 GLOBALSTAR M051 [-] 1 25853U 99037C 21015.56093947 -.00000056 00000-0 38630-3 0 9998 2 25853 51.9820 333.4485 0000927 267.8495 92.2209 11.42177200947996 GLOBALSTAR M030 [-] 1 25854U 99037D 21015.35492434 -.00000052 00000-0 48603-3 0 9997 2 25854 51.9852 242.6294 0004124 31.5154 328.5909 11.55067639963541 GLOBALSTAR M048 [-] 1 25872U 99041A 21015.54129267 -.00000082 00000-0 -31879-3 0 9995 2 25872 51.9332 206.1156 0011942 270.9088 120.6654 11.33824979942074 GLOBALSTAR M026 [-] 1 25873U 99041B 21015.53259066 -.00000087 00000-0 -85004-3 0 9990 2 25873 51.9967 188.3787 0002217 99.2739 299.0465 11.06788921969920 GLOBALSTAR M043 [-] 1 25874U 99041C 21015.61188817 -.00000068 00000-0 62130-5 0 9990 2 25874 51.9376 249.3149 0013260 78.6115 294.0954 11.25659149941168 GLOBALSTAR M028 [-] 1 25875U 99041D 21015.58459489 -.00000134 00000-0 -22025-3 0 9995 2 25875 51.9645 324.1450 0063221 167.6651 192.5773 12.50507288988281 GLOBALSTAR M024 [-] 1 25883U 99043A 21015.60191184 .00000022 00000-0 30900-2 0 9998 2 25883 52.0036 61.3384 0000899 343.8468 180.0637 11.10143488935666 GLOBALSTAR M027 [-] 1 25884U 99043B 21015.55889999 .00000004 00000-0 25463-2 0 9999 2 25884 52.0224 93.7535 0021195 262.6939 97.1445 11.04358999962951 GLOBALSTAR M054 [-] 1 25885U 99043C 21015.59397385 -.00000082 00000-0 -26460-3 0 9994 2 25885 52.0135 131.6710 0003596 237.7121 134.6510 11.39189642935372 GLOBALSTAR M053 [-] 1 25886U 99043D 21015.62134988 -.00000056 00000-0 37507-3 0 9991 2 25886 52.0011 349.2156 0003026 219.7167 311.9223 11.27640478937486 GLOBALSTAR M058 [-] 1 25907U 99049A 21015.50562197 -.00000047 00000-0 50346-3 0 9991 2 25907 51.9947 97.8336 0001910 45.2176 314.8814 11.93132384348911 GLOBALSTAR M050 [-] 1 25908U 99049B 21015.83769536 -.00000175 00000-0 -97518-3 0 9999 2 25908 51.9961 225.1537 0010129 58.7208 314.8870 12.07392898958030 GLOBALSTAR M033 [-] 1 25909U 99049C 21015.60285410 -.00000109 00000-0 -16874-3 0 9992 2 25909 51.9882 209.0513 0012118 207.0434 152.9782 12.20213280338754 GLOBALSTAR M055 [-] 1 25910U 99049D 21015.78983812 -.00000059 00000-0 30031-3 0 9998 2 25910 52.0028 297.7700 0007553 21.8626 338.2547 12.29356504970064 GLOBALSTAR M057 [-] 1 25943U 99058A 21015.60896929 -.00000075 00000-0 16624-3 0 9997 2 25943 51.9971 247.0999 0001707 308.2398 51.8298 12.24738796969214 GLOBALSTAR M059 [-] 1 25944U 99058B 21015.58047528 -.00000026 00000-0 74149-3 0 9990 2 25944 52.0001 252.2805 0001700 40.6812 326.5998 11.99933989380337 GLOBALSTAR M056 [-] 1 25945U 99058C 21015.50650425 -.00000110 00000-0 -26116-3 0 9995 2 25945 51.9974 295.8785 0000435 178.9352 352.2044 12.04734680968124 GLOBALSTAR M031 [-] 1 25946U 99058D 21015.50899833 -.00000157 00000-0 -67321-3 0 9998 2 25946 51.9967 284.6690 0001620 117.0127 294.7168 12.15966756968400 GLOBALSTAR M039 [-] 1 25961U 99062A 21015.62968398 -.00000111 00000-0 -39518-4 0 9994 2 25961 51.9836 142.7354 0002976 39.2397 320.8685 12.62224134976438 GLOBALSTAR M034 [-] 1 25962U 99062B 21015.54809141 -.00000060 00000-0 33498-3 0 9998 2 25962 51.9851 245.6733 0013285 231.0329 131.3244 11.79398123947983 GLOBALSTAR M029 [-] 1 25963U 99062C 21015.74774289 -.00000109 00000-0 -28941-3 0 9997 2 25963 51.9797 141.2196 0003104 165.7244 297.1311 11.99848038975495 GLOBALSTAR M061 [-] 1 25964U 99062D 21015.58600755 -.00000054 00000-0 43609-3 0 9992 2 25964 51.9812 48.2389 0006357 171.2223 358.1796 11.76733045931354 GLOBALSTAR M063 [+] 1 26081U 00008A 21015.58626531 -.00000080 00000-0 43192-4 0 9992 2 26081 51.9971 41.0012 0004888 107.8213 6.5185 11.86124186966092 GLOBALSTAR M062 [-] 1 26082U 00008B 21015.54389917 -.00000101 00000-0 -23874-4 0 9993 2 26082 51.9827 160.5264 0005699 260.9407 173.6521 12.43371987296088 GLOBALSTAR M060 [-] 1 26083U 00008C 21015.74559652 -.00000039 00000-0 52111-3 0 9995 2 26083 52.0003 251.7692 0004569 84.9050 308.0572 12.17586980955981 GLOBALSTAR M064 [-] 1 26084U 00008D 21015.57329931 -.00000108 00000-0 -35217-3 0 9998 2 26084 52.0014 158.8948 0001698 162.1420 197.9473 11.88487783975340 GLOBALSTAR M065 [+] 1 31571U 07020A 21015.61174619 -.00000098 00000-0 31032-4 0 9991 2 31571 51.9916 98.4638 0001759 154.2292 348.0166 12.62270508629878 GLOBALSTAR M069 [+] 1 31573U 07020C 21015.54002223 -.00000081 00000-0 12828-3 0 9999 2 31573 51.9966 54.8299 0001318 182.7240 294.1148 12.62266041630784 GLOBALSTAR M072 [+] 1 31574U 07020D 21015.52663389 -.00000126 00000-0 -12423-3 0 9996 2 31574 52.0070 149.6846 0002297 101.8051 334.1352 12.62270084629178 GLOBALSTAR M071 [P] 1 31576U 07020F 21015.57574660 -.00000087 00000-0 93839-4 0 9992 2 31576 52.0080 58.9113 0001920 166.2648 352.2926 12.62267786292077 GLOBALSTAR M067 [+] 1 32263U 07048A 21015.69612764 -.00000074 00000-0 17413-3 0 9996 2 32263 51.9739 76.7477 0001592 140.4148 9.9383 12.40598275609469 GLOBALSTAR M070 [+] 1 32264U 07048B 21015.40268456 -.00000104 00000-0 10752-5 0 9996 2 32264 51.9769 4.4068 0001097 229.3651 283.9881 12.62263975610013 GLOBALSTAR M066 [+] 1 32265U 07048C 21015.56818941 -.00000096 00000-0 45018-4 0 9996 2 32265 51.9652 226.4620 0001770 41.9061 343.9027 12.62265210612257 GLOBALSTAR M068 [-] 1 32266U 07048D 21015.54168987 -.00000128 00000-0 -13603-3 0 9994 2 32266 51.9862 180.6243 0001800 120.7154 312.8461 12.62722519613917 GLOBALSTAR M079 [+] 1 37188U 10054A 21015.50415667 -.00000100 00000-0 21317-4 0 9990 2 37188 52.0057 12.1052 0000102 31.4462 112.4115 12.62264791472819 GLOBALSTAR M074 [+] 1 37189U 10054B 21015.45520660 -.00000108 00000-0 -24362-4 0 9997 2 37189 52.0034 11.8278 0000064 352.3351 169.1067 12.62268495473305 GLOBALSTAR M076 [+] 1 37190U 10054C 21015.55993297 -.00000110 00000-0 -32363-4 0 9993 2 37190 52.0051 11.5302 0000554 35.1146 123.0068 12.62265045473042 GLOBALSTAR M077 [+] 1 37191U 10054D 21015.62897200 -.00000087 00000-0 92106-4 0 9992 2 37191 52.0088 327.7156 0000574 38.7211 132.7809 12.62285130473559 GLOBALSTAR M075 [+] 1 37192U 10054E 21015.57376071 -.00000091 00000-0 71437-4 0 9994 2 37192 51.9961 54.6390 0000269 117.9962 43.1488 12.62263970472351 GLOBALSTAR M073 [+] 1 37193U 10054F 21015.57654764 -.00000092 00000-0 65694-4 0 9992 2 37193 52.0076 327.2294 0000509 47.7191 124.7963 12.62265353474054 GLOBALSTAR M083 [+] 1 37739U 11033A 21015.50990545 -.00000082 00000-0 12271-3 0 9990 2 37739 51.9857 278.3659 0000467 64.1038 107.0240 12.62267097443271 GLOBALSTAR M088 [+] 1 37740U 11033B 21015.54048222 -.00000124 00000-0 -11013-3 0 9993 2 37740 51.9707 185.1195 0000828 83.2854 346.9496 12.62263731438830 GLOBALSTAR M091 [+] 1 37741U 11033C 21015.62064082 -.00000123 00000-0 -10991-3 0 9998 2 37741 51.9987 145.5406 0000859 107.1919 266.6873 12.62265305439565 GLOBALSTAR M085 [+] 1 37742U 11033D 21015.54800493 -.00000096 00000-0 44331-4 0 9998 2 37742 51.9874 98.2289 0000696 130.6178 333.4399 12.62264443440134 GLOBALSTAR M081 [+] 1 37743U 11033E 21015.58242125 -.00000094 00000-0 57207-4 0 9999 2 37743 51.9964 99.9175 0000535 111.2694 27.8405 12.62268422440264 GLOBALSTAR M089 [+] 1 37744U 11033F 21015.86636674 -.00000089 00000-0 85040-4 0 9997 2 37744 51.9945 53.5844 0000667 113.7284 56.9247 12.62268148441196 GLOBALSTAR M084 [+] 1 38040U 11080A 21015.48355859 -.00000077 00000-0 14802-3 0 9994 2 38040 52.0008 281.1899 0001000 60.4047 110.5125 12.62263087419097 GLOBALSTAR M080 [+] 1 38041U 11080B 21015.74345704 -.00000076 00000-0 15641-3 0 9993 2 38041 52.0059 281.4402 0001077 58.1263 333.0463 12.62267922419173 GLOBALSTAR M082 [+] 1 38042U 11080C 21015.59683564 -.00000091 00000-0 68498-4 0 9992 2 38042 52.0054 237.1604 0000641 80.3333 305.3830 12.62264514419839 GLOBALSTAR M092 [+] 1 38043U 11080D 21015.60223932 -.00000099 00000-0 25309-4 0 9996 2 38043 52.0101 327.4293 0000675 82.7692 87.2875 12.62269365418340 GLOBALSTAR M090 [+] 1 38044U 11080E 21015.55839035 -.00000096 00000-0 43039-4 0 9995 2 38044 51.9862 233.1672 0000878 69.6258 20.8779 12.62265997419832 GLOBALSTAR M086 [+] 1 38045U 11080F 21015.56878875 -.00000090 00000-0 78289-4 0 9991 2 38045 51.9873 233.5615 0001830 32.0596 345.6331 12.62265188419883 GLOBALSTAR M097 [+] 1 39072U 13005A 21015.51244047 -.00000117 00000-0 -76438-4 0 9999 2 39072 52.0041 146.6323 0000740 79.2486 280.8464 12.62267015367108 GLOBALSTAR M093 [+] 1 39073U 13005B 21015.48553975 -.00000123 00000-0 -10506-3 0 9999 2 39073 51.9801 142.6001 0000487 103.6075 256.4846 12.62266274367068 GLOBALSTAR M094 [+] 1 39074U 13005C 21015.56503197 -.00000099 00000-0 27134-4 0 9997 2 39074 51.9972 55.1314 0000276 134.5663 225.5226 12.62266535368593 GLOBALSTAR M096 [+] 1 39075U 13005D 21015.57813228 -.00000102 00000-0 11627-4 0 9993 2 39075 52.0078 102.3421 0000510 122.2806 237.8110 12.62267067367735 GLOBALSTAR M078 [+] 1 39076U 13005E 21015.55174103 -.00000125 00000-0 -11613-3 0 9994 2 39076 51.9847 189.1272 0000937 143.3621 216.7310 12.62266586366346 GLOBALSTAR M095 [+] 1 39077U 13005F 21015.49867995 -.00000125 00000-0 -12047-3 0 9998 2 39077 51.9773 187.2874 0000698 120.4525 239.6410 12.62265375366200